www.pogodaiklimat.ru

Погода и климат >> Архив погоды >> Россия >> Волгоградская область >> Котельниково


ПОГОДА в Котельниково

  • Прогноз погоды в Котельниково
  • Монитор погоды в Котельниково

АРХИВ ПОГОДЫ в Котельниково

Время (UTC), дата Ветер
(напр.,м/с)
 
Видим.   Явления Облачность Т
(С)
Тd
(С)
f
(%)
Тe
(С)
Тes
(С)
Комфортность P
(гПа)
Po
(гПа)
Тmin
(С)
Tmax
(С)
R
(мм)
R24
(мм)
S
(см)
06 15.04 В 5 10 км 6/0
[Ac trans]
+15.8 +10.6 71 +15 +17 1012.6 1006.9
09 15.04 В 6
{10}
10 км 10/10 600 м
[Sc diur, vesp]
+19.0 +9.1 53 +19 +19 1013.0 1007.3
12 15.04 ЮВ 5
{11}
10 км 10/10 600 м
[Cu med, cong]
+20.7 +8.9 47 +22 +22 комфорт 1012.7 1007.0
15 15.04 Ю 6-11
{13}
4000 м гроза, ливневой дождь 10/10 300 м
[Cb cap]
+13.0 +11.9 93 +10 +10 1013.3 1007.5 +21.2 10
18 15.04 СВ 2
{11}
10 км слаб. ливневой дождь {гроза} 10/10 300 м
[Cb cap]
+13.5 +11.5 88 +13 +13 1013.9 1008.1
21 15.04 С 1 10 км {ливн. осадки} 10/10 600 м
[Sc diur, vesp]
+12.8 +11.0 89 +13 +13 1013.4 1007.6
00 16.04 В 3 10 км {ливн. осадки} 10/10 600 м
[Sc diur, vesp]
+12.2 +10.6 90 +11 +11 1012.9 1007.1
03 16.04 СВ 3 10 км 10/10 600 м
[Sc diur, vesp]
+11.5 +9.9 90 +10 +10 1013.1 1007.2 +11.5 2
06 16.04 В 5 10 км 10/10 600 м
[Sc]
+12.4 +9.0 80 +10 +10 1013.4 1007.6
09 16.04 СВ 5 10 км слаб. дождь 10/10 300 м
[Frnb Ns]
+12.8 +9.7 81 +11 +11 1012.8 1007.0
12 16.04 СВ 4 10 км слаб. дождь 10/10 300 м
[Frnb Ns]
+12.4 +10.2 86 +10 +10 1012.0 1006.1
15 16.04 СВ 4 10 км слаб. дождь 10/10 300 м
[Frnb Ns]
+12.3 +9.9 85 +10 +10 1011.5 1005.7 +13.4 10
18 16.04 СВ 5 10 км слаб. дождь 10/10 300 м
[Frnb Ns]
+11.0 +8.3 83 +8 +8 1012.5 1006.7
21 16.04 СВ 6-10
{12}
10 км слаб. дождь 10/10 300 м
[Frnb Ns]
+10.0 +7.6 85 +7 +7 1011.9 1006.0
00 17.04 СВ 6-10
{11}
10 км {дождь} 10/10 600 м
[Sc]
+10.1 +7.0 81 +7 +7 1011.9 1006.0
03 17.04 СВ 6-11
{12}
10 км слаб. дождь 10/10 300 м
[Frnb Ns]
+9.0 +6.8 86 +5 +5 1012.6 1006.7 +9.0 10
06 17.04 СВ 10-18
{18}
10 км {дождь} 10/10 600 м
[Sc]
+6.5 +3.4 81 +1 +1 1014.6 1008.6 +6.5
09 17.04 СВ 8-13
{18}
4000 м слаб. ливневой дождь 10/10 300 м
[Cb cap]
+5.4 +2.7 83 -0 -0 1016.8 1010.7
12 17.04 СВ 8-14
{16}
10 км слаб. ливневой дождь 10/10 300 м
[Cb cap]
+5.1 +1.8 79 -1 -1 1018.1 1012.1
15 17.04 СВ 5
{15}
10 км в посл. час ливневой дождь 10/10 600 м
[Cu med, cong]
+6.9 +0.7 65 +3 +3 1019.1 1013.1 +9.0 6
18 17.04 СВ 6-10
{13}
10 км 8/0
[Ac trans]
+5.1 -5.6 46 +1 +1 1021.8 1015.7
21 17.04 СВ 5
{10}
10 км 6/0
[Ac trans]
+3.1 -5.6 53 -2 -2 1023.0 1016.9
00 18.04 СВ 4 10 км ясно +1.2 -6.7 56 -3 -3 1023.9 1017.7
03 18.04 СВ 5 10 км ясно +0.3 -8.1 53 -5 -5 1024.9 1018.7 +0.1
06 18.04 СВ 5
{10}
10 км ясно +3.4 -6.2 49 -1 +3 1026.0 1019.9
09 18.04 СВ 6-11
{11}
10 км 3/0
[Ac As]
+7.4 -7.6 34 +4 +9 1026.1 1020.1
12 18.04 СВ 6-11
{12}
10 км 3/0
[Ac As]
+8.9 -7.2 31 +6 +9 1025.2 1019.2
15 18.04 В 6
{11}
10 км 3/0
[Ac As]
+7.8 -8.8 30 +4 +5 1024.8 1018.8 +9.2
18 18.04 СВ 2 10 км 3/3 600 м
[Sc]
+2.6 -4.8 58 0 0 1026.4 1020.2
21 18.04 В 2 10 км ясно -0.5 -4.7 73 -4 -4 1026.4 1020.2
00 19.04 СВ 2 10 км ясно -1.2 -5.3 74 -5 -5 1025.8 1019.6
03 19.04 В 2 10 км ясно -1.4 -5.6 73 -5 -5 1025.9 1019.6 -2.0
06 19.04 В 6-10
{10}
10 км 3/0
[Ac trans]
+6.6 -6.6 38 +3 +6 1026.4 1020.3
09 19.04 В 6-10
{12}
10 км 3/0
[Ac trans]
+8.8 -9.7 26 +6 +11 1025.8 1019.8
12 19.04 В 6-10
{12}
10 км 3/0
[Ac trans]
+10.3 -10.0 23 +8 +11 1025.0 1019.0
15 19.04 В 5
{11}
10 км 6/0
[Ac trans]
+9.4 -10.0 24 +7 +7 1025.0 1019.0 +10.7
18 19.04 СВ 3 10 км 6/0
[Ac trans]
+4.4 -5.2 50 +1 +1 1026.2 1020.1
21 19.04 СВ 3 10 км 3/0
[Ac trans]
+0.8 -4.5 68 -3 -3 1026.2 1020.0
00 20.04 В 2 10 км 3/0
[Ac trans]
-1.2 -5.5 73 -5 -5 1025.7 1019.5
03 20.04 В 1 10 км 8/0
[Ac trans]
-0.7 -5.8 68 -2 -2 1025.9 1019.7 -1.7
06 20.04 В 5 10 км 4/0
[Ac trans]
+8.8 -6.1 34 +6 +9 1026.2 1020.2
09 20.04 В 5
{10}
10 км ясно +11.7 -9.6 22 +10 +18 1025.9 1019.9
12 20.04 В 4
{10}
10 км 3/0
[Ac trans]
+12.9 -9.0 21 +12 +17 1025.1 1019.2
15 20.04 В 4 10 км ясно +12.1 -8.8 22 +11 +11 1024.7 1018.8 +13.2
18 20.04 Ю 1 10 км ясно +5.0 -2.6 58 +4 +4 1025.9 1019.8
21 20.04 штиль 0 10 км ясно +2.3 -3.0 68 +2 +2 1025.7 1019.6
00 21.04 штиль 0 10 км ясно -0.2 -2.4 85 -1 -1 1025.0 1018.8
03 21.04 штиль 0 10 км ясно +0.4 -4.0 72 -0 0 1025.5 1019.3 -0.8
06 21.04 В 4 10 км ясно +11.6 -3.8 34 +10 +16 1025.5 1019.6
09 21.04 В 6
{11}
10 км 1/1 600 м
[Cu hum]
+14.2 -7.4 22 +13 +18 1025.1 1019.2
12 21.04 В 4
{11}
10 км 3/3 600 м
[Cu hum]
+14.8 -7.2 21 +14 +18 1024.2 1018.3
15 21.04 В 4
{10}
10 км 1/1 600 м
[Cu hum]
+13.6 -7.1 23 +13 +13 1024.1 1018.2 +15.0
18 21.04 СВ 2 10 км ясно +6.8 -2.8 50 +5 +5 1025.1 1019.1
21 21.04 В 2 10 км ясно +3.0 -3.0 65 0 0 1025.3 1019.2
00 22.04 В 1 10 км ясно +1.6 -3.5 69 0 0 1025.4 1019.2
03 22.04 ЮВ 1 10 км ясно +2.0 -2.8 70 +1 +1 1026.0 1019.8 +0.6

 

Местоположение метеостанции Котельниково (Волгоградская область, Россия): широта 47.63 долгота 43.15 высота над уровнем моря 47 м.

В архиве по умолчанию представлена погода в Котельниково за последнюю неделю. Архивные данные за месяц целиком и за предыдущие месяцы, начиная с января 2011 года, Вы можете получить, выбрав интересующий диапазон дат из раскрывающегося списка и нажав кнопку "Ввод!".


*Определитесь, кто Вы:
робот инопланетянин человек

Внимание! Время в таблицах - всемирное. Для получения местного времени необходимо прибавить поправку, которая равна 3 ч.

Смотрите также архив погоды в соседних городах и на ближайших метеорологических станциях:

Погода в Зимовниках (Ростовская область, Россия) (73 км)
Погода в Цимлянске (Ростовская область, Россия) (77 км)
Погода в Нижнем Чире (Волгоградская область, Россия) (78 км)
Погода в Кетченерах (Калмыкия, Россия) (112 км)
Погода в Калаче-на-Дону (Волгоградская область, Россия) (119 км)
Погода в Малых Дербетах (Калмыкия, Россия) (121 км)
Погода в Ремонтном (Ростовская область, Россия) (124 км)
Погода в Морозовске (Ростовская область, Россия) (124 км)
Погода в Волгограде город (Волгоградская область, Россия) (151 км)
Погода в Константиновске (Ростовская область, Россия) (154 км)

Пояснения к столбцам:

Ветер - указаны скорость ветра в м/с - средняя за 10 мин, порывы в срок и между сроками (в фигурных скобках) и направление, откуда дует ветер: С - северный, СВ - северо-восточный, В - восточный, ЮВ - юго-восточный, Ю - южный, ЮЗ - юго-западный, З - западный, СЗ - северо-западный.
Видимость - горизонтальная дальность видимости в метрах или километрах. При видимости от 1 до 10 км при отсутствии осадков обычно наблюдается дымка, при ухудшении видимости до 1 км и менее - туман. В сухую погоду видимость может ухудшаться дымом, пылью или мглою.
Явления - указаны атмосферные явления, наблюдавшиеся в срок или в последний час перед сроком; фигурными скобками обозначены явления, наблюдавшиеся между сроками (за 1-3 часа до срока); квадратными скобками обозначены град или гололедные отложения с указанием их диаметра в мм.
Облачность - указаны через наклонную черту общая и нижняя облачность в баллах и высота нижней границы облаков в метрах; квадратными скобками обозначены формы облаков: Ci - перистые, Cs - перисто-слоистые, Cc - перисто-кучевые, Ac - высококучевые, As - высокослоистые, Sc - слоисто-кучевые, Ns - слоисто-дождевые, Cu - кучевые, Cb - кучево-дождевые. Подробнее классификацию облаков см. в Атласе облаков (PDF).
T - Температура воздуха - температура, измеренная на высоте 2 м над землей.
Td - Температура точки росы - температура, при понижении до которой содержащийся в воздухе водяной пар достигнет насыщения.
f - Относительная влажность воздуха - влажноcть воздуха, измеренная на высоте 2 м над землей.
Te - Эффективная температура - температура, которую ощущает одетый по сезону человек в тени. Характеристика душности погоды. При расчете учитывается влияние влажности воздуха и скорости ветра на теплоощущения человека.
Tes - Эффективная температура на солнце - температура, которую ощущает человек, с поправкой на солнечный нагрев. Характеристика знойности погоды. Зависит от высоты солнца над горизонтом, облачности и скорости ветра. Ночью, в пасмурную погоду, а также при ветре 12 м/с и более поправка равна нулю.
P - Атмосферное давление - приведенное к уровню моря атмосферное давление.
Po - Атмосферное давление - измеренное на уровне метеостанции атмосферное давление.
Tmin - Минимальная температура - минимум температуры воздуха на высоте 2 м над землей.
Tmax - Максимальная температура - максимум температуры воздуха на высоте 2 м над землей.
R - Количество осадков - Количество выпавших осадков за период времени, мм. При наведении курсора мыши на число - период времени, за который выпало указанное количество осадков.
R24 - Количество осадков - Количество выпавших осадков за 24 часа, мм.
S - Снежный покров - Высота снежного покрова, см. При наведении курсора мыши на число - состояние снежного покрова и степень покрытия местности в баллах.